Kenosha, WI

8:36 PM CST on December 10, 2016 (GMT -0600)
Kenosha Regional

Weather History for KENW - April, 2013

Change the Weather History Date:

Thursday, April 11, 2013

  Actual Average Record
Temperature  
Mean Temperature 38 °F -  
Max Temperature 39 °F 50 °F 83 °F (1977)
Min Temperature 36 °F 34 °F 22 °F (1973)
Degree Days  
Heating Degree Days 28    
Moisture  
Dew Point 36 °F    
Average Humidity 93    
Maximum Humidity 96    
Minimum Humidity 89    
Precipitation  
Precipitation 0.65 in - - ()
Sea Level Pressure  
Sea Level Pressure 29.70 in    
Wind  
Wind Speed 19 mph (East)    
Max Wind Speed 36 mph    
Max Gust Speed 44 mph    
Visibility 2 miles    
Events Fog , Rain    
Averages and records for this station are not official NWS values.
T = Trace of Precipitation, MM = Missing Value Source: NWS Daily Summary

Daily Weather History Graph

Daily Weather History Graph

Search for Another Location

Airport or City:

Trip Planner

Search our weather history database for the weather conditions in past years. The results will help you decide how hot, cold, wet, or windy it might be!

Date:

Astronomy

Apr. 11, 2013 Rise Set
Actual Time 6:16 AM CDT 7:29 PM CDT
Civil Twilight 5:47 AM CDT 7:58 PM CDT
Nautical Twilight 5:12 AM CDT 8:33 PM CDT
Astronomical Twilight 4:36 AM CDT 9:10 PM CDT
Moon 6:46 AM CDT 9:06 PM CDT
Length of Visible Light 14h 10m
Length of Day
13h 12m
New Moon, 2% of the Moon is Illuminated
Apr 11
New Moon
Apr 18
First Quarter
Apr 25
Full
May 2
Last Quarter
May 9
New

Hourly Weather History & Observations

Time (CDT) Temp. Windchill Dew Point Humidity Pressure Visibility Wind Dir Wind Speed Gust Speed Precip Events Conditions
12:13 AM 37.4 °F 27.5 °F 35.6 °F 93% 29.91 in 4.0 mi ENE 18.4 mph 28.8 mph 0.06 in Rain Rain
12:53 AM 37.9 °F 26.8 °F 35.1 °F 89% 29.93 in 2.5 mi ENE 24.2 mph 29.9 mph 0.28 in Rain Heavy Rain
1:02 AM 37.4 °F 26.6 °F 35.6 °F 93% 29.91 in 3.0 mi ENE 21.9 mph - 0.04 in Rain Heavy Rain
1:12 AM 37.4 °F 27.5 °F 35.6 °F 93% 29.91 in 3.0 mi ENE 18.4 mph - 0.09 in Rain Heavy Rain
1:24 AM 37.4 °F 26.4 °F 35.6 °F 93% 29.89 in 4.0 mi ENE 23.0 mph - 0.12 in Rain Rain
1:34 AM 37.4 °F 26.1 °F 35.6 °F 93% 29.88 in 4.0 mi ENE 24.2 mph 29.9 mph 0.14 in Rain Light Rain
1:53 AM 36.0 °F 22.0 °F 33.1 °F 89% 29.80 in 5.0 mi ENE 35.7 mph 43.7 mph 0.16 in Rain Light Rain
2:53 AM 36.0 °F 24.2 °F 33.1 °F 89% 29.83 in 10.0 mi East 24.2 mph 29.9 mph 0.00 in   Overcast
3:53 AM 37.0 °F 26.7 °F 34.0 °F 89% 29.83 in 10.0 mi ENE 19.6 mph - N/A   Overcast
4:53 AM 37.0 °F 27.7 °F 34.0 °F 89% 29.81 in 3.0 mi ENE 16.1 mph - N/A   Overcast
5:13 AM 37.4 °F 28.2 °F 35.6 °F 93% 29.77 in 1.8 mi ENE 16.1 mph - N/A   Overcast
5:25 AM 37.4 °F 27.2 °F 35.6 °F 93% 29.76 in 1.8 mi ENE 19.6 mph - 0.01 in   Overcast
5:31 AM 37.4 °F 28.2 °F 35.6 °F 93% 29.75 in 3.0 mi ENE 16.1 mph - 0.01 in   Overcast
5:53 AM 37.0 °F 26.2 °F 35.1 °F 93% 29.77 in 10.0 mi East 21.9 mph - 0.01 in   Overcast
6:53 AM 37.9 °F 28.2 °F 35.1 °F 89% 29.76 in 2.0 mi ENE 18.4 mph 29.9 mph 0.01 in Rain Light Rain
7:53 AM 37.9 °F 27.3 °F 35.1 °F 89% 29.76 in 2.0 mi East 21.9 mph 29.9 mph 0.01 in Rain Light Rain
8:53 AM 37.9 °F 27.6 °F 35.1 °F 89% 29.75 in 2.0 mi ENE 20.7 mph 28.8 mph 0.02 in Rain Light Rain
9:00 AM 37.4 °F 26.9 °F 35.6 °F 93% 29.72 in 1.0 mi East 20.7 mph 29.9 mph 0.01 in Rain Light Rain
9:53 AM 37.9 °F 27.6 °F 36.0 °F 93% 29.74 in 1.2 mi ENE 20.7 mph - 0.04 in Rain Light Rain
10:10 AM 37.4 °F 26.9 °F 35.6 °F 93% 29.71 in 0.8 mi ENE 20.7 mph 28.8 mph 0.02 in Rain Light Rain
10:53 AM 37.9 °F 27.6 °F 36.0 °F 93% 29.71 in 1.0 mi East 20.7 mph - 0.05 in Rain Light Rain
12:14 PM 39.2 °F 30.2 °F 37.4 °F 93% 29.69 in 0.8 mi East 17.3 mph - 0.01 in Rain Light Rain
12:53 PM 39.0 °F 29.6 °F 37.0 °F 93% 29.69 in 0.8 mi ENE 18.4 mph 24.2 mph 0.01 in   Overcast
1:46 PM 39.2 °F 29.8 °F 37.4 °F 93% 29.64 in 1.0 mi East 18.4 mph - 0.01 in   Overcast
1:53 PM 39.0 °F 29.3 °F 37.0 °F 93% 29.65 in 1.0 mi East 19.6 mph - 0.01 in   Overcast
2:00 PM 39.2 °F 30.2 °F 37.4 °F 93% 29.63 in 0.8 mi East 17.3 mph 26.5 mph N/A   Overcast
2:14 PM 39.2 °F 29.8 °F 37.4 °F 93% 29.64 in 1.0 mi East 18.4 mph - N/A   Overcast
2:21 PM 39.2 °F 29.8 °F 37.4 °F 93% 29.64 in 0.8 mi East 18.4 mph - N/A   Overcast
2:53 PM 39.9 °F 31.4 °F 37.9 °F 93% 29.65 in 0.8 mi ENE 16.1 mph - 0.01 in   Overcast
3:36 PM 39.2 °F 30.5 °F 37.4 °F 93% 29.62 in 1.2 mi ENE 16.1 mph - N/A   Overcast
3:53 PM 39.0 °F 30.6 °F 37.9 °F 96% 29.64 in 1.2 mi ENE 15.0 mph - N/A   Overcast
4:53 PM 39.0 °F 31.4 °F 37.9 °F 96% 29.64 in 1.0 mi ENE 12.7 mph - 0.01 in   Overcast
5:53 PM 39.0 °F 31.8 °F 37.9 °F 96% 29.64 in 1.5 mi ENE 11.5 mph - N/A   Overcast
6:53 PM 39.0 °F 32.3 °F 37.9 °F 96% 29.62 in 1.0 mi NE 10.4 mph - N/A   Overcast
7:53 PM 39.0 °F 34.8 °F 37.9 °F 96% 29.60 in 0.2 mi NE 5.8 mph - N/A Fog Fog
8:53 PM 39.9 °F 35.8 °F 37.9 °F 93% 29.59 in 0.2 mi East 5.8 mph - N/A Fog Fog
9:13 PM 39.2 °F 32.5 °F 37.4 °F 93% 29.58 in 0.2 mi ESE 10.4 mph - N/A Fog Fog
9:19 PM 39.2 °F 33.6 °F 37.4 °F 93% 29.58 in 1.0 mi ESE 8.1 mph - 0.00 in Rain Light Rain
9:53 PM 39.0 °F 32.3 °F 37.9 °F 96% 29.60 in 1.5 mi ESE 10.4 mph - 0.01 in Rain Light Rain
10:12 PM 39.2 °F 32.0 °F 37.4 °F 93% 29.57 in 2.5 mi East 11.5 mph - 0.00 in   Overcast
10:23 PM 39.2 °F 32.5 °F 37.4 °F 93% 29.57 in 4.0 mi ESE 10.4 mph - 0.00 in   Overcast
10:53 PM 39.0 °F 32.3 °F 37.0 °F 93% 29.59 in 5.0 mi ESE 10.4 mph - 0.00 in   Overcast
11:25 PM 39.2 °F 32.5 °F 37.4 °F 93% 29.57 in 2.0 mi ESE 10.4 mph - N/A   Overcast
11:33 PM 39.2 °F 33.0 °F 37.4 °F 93% 29.57 in 1.8 mi SSE 9.2 mph - 0.01 in Rain Light Rain
11:53 PM 39.0 °F 33.4 °F 37.0 °F 93% 29.58 in 1.5 mi SE 8.1 mph - 0.02 in Rain Light Rain